Regional Weather Roundup
Issued by NWS Goodland, KS

Home | Current Version | Previous Version | Text Only | Print | Product List | Glossary Off
Versions: 1 2 3 4 5 6 7 8 9 10 11 12 13 14 15 16 17 18 19 20 21 22 23 24 25 26 27 28 29 30 31 32 33 34 35 36 37 38 39 40 41 42 43 44 45 46 47 48 49 50

000
ASUS43 KGLD 311859
RWRGLD

GOODLAND FORECAST AREA HOURLY WEATHER ROUNDUP
NATIONAL WEATHER SERVICE GOODLAND KS
100 PM MDT MON AUG 31 2015

...OFFICIAL OBSERVATIONS...

CITY           SKY/WX    TMP DP  RH WIND       PRES   REMARKS
GOODLAND KS    SUNNY     91  51  25 E9        29.96F
HILL CITY KS   SUNNY     96  56  26 S10       29.90F
IMPERIAL NEB   MOSUNNY   92  51  24 NE13      29.96S
MCCOOK NEB     SUNNY     90  58  33 VRB5      29.91F
AKRON CO       PTSUNNY   86  46  24 NE12G25   30.07F
BURLINGTON CO  SUNNY     90  48  23 NE7       30.01F
LIMON CO       LGT RAIN  80  47  31 N14       30.12F
$$

...UNOFFICIAL OBSERVATIONS...

CITY           SKY/WX    TMP DP  RH WIND       PRES   REMARKS
COLBY KS       SUNNY     90  61  37 CALM      29.96S
GOVE KS          N/A     95  32  11 MISG        N/A
LENORA KS        N/A     90  32  12 MISG        N/A
NORTON KS      SUNNY     88  55  33 SE3       29.91S
SHARON SPRINGS   N/A     92  57  30 SE10G18     N/A
TRENTON NEB      N/A     87  32  14 N5          N/A
KIT CARSON CO    N/A     91  50  24 MISG        N/A
YUMA CO          N/A     88  52  28 E9G16       N/A
$$


USA.gov is the U.S. government's official web portal to all federal, state and local government web resources and services.